ARIANE 5 DEB (SYLDA), 41947

Orbit data source: Space-Track

ARIANE 5 DEB (SYLDA), 41947 is space debris in HEO originally from a launch on Tue, 14 Feb 2017 UTC launched from the French Guiana (FRGUI). Debris objects in space refer to the collection of defunct objects orbiting the Earth. Examples of debris include non-operational satellites, rocket bodies, and fragments generated from explosions, collisions, or faulty payload assembly.

Loading next visibility...
Identifier
41947, 2017-007D
Orbit
HEO
Country
Flag of FRFR
Related business
Manufacturer
ADS/Bremen
Mission
Spacecraft
Bus & Motor
SYLDA 5, Unknown motor
Mass
440 kg wet, 440 kg dry
Launch date (UTC)
2017-02-14 (9 years ago)
Launch vehicle
Unknown
Launch site
French Guiana (FRGUI)
Object type
Payload
Rocket body
Debris
Shape & HBR
Cyl, 2.8 m
Radar Cross Section
27.391 m², Large (>1 m²)

Expand to show TLE details & history
Last TLE update: 1 day ago

TLE from 1 day ago
0 ARIANE 5 DEB (SYLDA)
1 41947U 17007D   25259.00005081  .00157059  00000-0  73565-2 0  9992
2 41947   3.9034 166.1118 5112927  53.9595 343.3301  5.51657054 96249
Epoch: 2025-09-16T00:00Z
TLE epoch observation values (Epoch: 2025-09-16T00:00:04.389Z)
Latitude
0.00001°
Longitude
170.92643°
Altitude
1,300.195 km
Speed
8.623 km/s
True Right ascension
11h 04m 33s
True Declination
0° 00' 00"
Sunlit
Object was in daylight at epoch
Visualization orbit readout
Latitude
Unknown
Longitude
Unknown
Altitude
Unknown
Speed
Unknown
Apparent Right ascension
Unknown
Apparent Declination
Unknown
Sunlit
N/A
Visualization observer readout
Local Sidereal Time
20:37:56
Azimuth
Unknown
Elevation
Unknown
Doppler factor
Unknown
Orbital elements
Apogee altitude
14,076.953 km
Perigee altitude
236.433 km
Semi-major axis
13,534.83 km
Eccentricity
0.51129
Inclination
3.9034°
RAAN
166.1118°
Arg. of periapsis
53.9595°
True anomaly
305.96312°
Mean anomaly
343.3301°
Eccentric anomaly
327.65826°
Mean motion
1.37836 °/min
Orbital period
261.18 mins
BSTAR
0.0073565
Loading maneuver chart data...
Computing Atmospheric mass density...
Loading historical data...
Loading historical data...
Loading historical data...
Loading historical data...
Loading historical data...
Loading historical data...
Loading historical data...
Other satellites on launch #7 in the year 2017 (2017-02-14 UTC)

Documentation

Showing up to 5 results
|